Location: Albany
(35.0170°S, 117.8920°E)
Time: 11:23:29
(UTC+08:00)

S-56A Canister/Altair - Pass Details

Date: 27 January 2021
Orbit: 631 x 2501 km, 38.9° (Epoch: 02 March)

Event Time Altitude Azimuth Distance (km) Brightness Sun altitude
Rises 14:07:02 0° 282° (WNW) 5,509 12.3 61.3°
Reaches altitude 10° 14:10:20 10° 281° (W) 4,696 12.2 60.7°
Maximum altitude 14:24:26 82° 193° (SSW) 2,516 11.2 58.0°
Drops below altitude 10° 14:39:34 10° 104° (ESE) 4,986 11.4 55.2°
Sets 14:43:11 0° 102° (ESE) 5,852 11.7 54.5°
